This is the latest recevied weather packets stored in our database for station/object K6CED. If no packets are shown the sender has not sent any weather packets the latest 10 day(s).
| Time | Temp. | Humidity | Pressure | Rain* | Wind** | Luminosity | Snow |
|---|---|---|---|---|---|---|---|
| 1787856774 | 36.11° C | 38% | 1015.6 hPa | 0 mm | - | 555 W/m² | - |
| 1787856468 | 36.11° C | 38% | 1015.4 hPa | 0 mm | - | 611 W/m² | - |
| 1787856164 | 35.56° C | 38% | 1015.3 hPa | 0 mm | - | 528 W/m² | - |
| 1787855858 | 36.11° C | 38% | 1015.4 hPa | 0 mm | - | 870 W/m² | - |
| 1787855553 | 35.56° C | 40% | 1015.5 hPa | 0 mm | - | 864 W/m² | - |
| 1787855248 | 35.56° C | 39% | 1015.5 hPa | 0 mm | - | 842 W/m² | - |
| 1787854944 | 35° C | 41% | 1015.7 hPa | 0 mm | - | 830 W/m² | - |
| 1787854639 | 33.89° C | 42% | 1015.8 hPa | 0 mm | - | 821 W/m² | - |
| 1787854333 | 33.89° C | 42% | 1015.9 hPa | 0 mm | - | 796 W/m² | - |
| 1787854028 | 33.89° C | 44% | 1015.9 hPa | 0 mm | - | 806 W/m² | - |
| 1787853722 | 33.33° C | 44% | 1016 hPa | 0 mm | - | 747 W/m² | - |
| 1787853421 | 33.33° C | 45% | 1015.9 hPa | 0 mm | - | 684 W/m² | - |
| 1787853120 | 32.78° C | 47% | 1015.9 hPa | 0 mm | - | 500 W/m² | - |
| 1787852815 | 32.78° C | 48% | 1015.8 hPa | 0 mm | - | 299 W/m² | - |
| 1787852515 | 32.78° C | 48% | 1015.9 hPa | 0 mm | - | 591 W/m² | - |
| 1787852209 | 32.22° C | 48% | 1015.7 hPa | 0 mm | - | 367 W/m² | - |
| 1787851904 | 32.78° C | 46% | 1015.7 hPa | 0 mm | - | 382 W/m² | - |
| 1787851603 | 32.22° C | 45% | 1015.6 hPa | 0 mm | - | 331 W/m² | - |
| 1787851298 | 32.22° C | 45% | 1015.7 hPa | 0 mm | - | 287 W/m² | - |
| 1787850993 | 32.22° C | 46% | 1015.5 hPa | 0 mm | - | 264 W/m² | - |
| 1787850689 | 31.67° C | 48% | 1015.5 hPa | 0 mm | - | 483 W/m² | - |
| 1787850385 | 31.67° C | 48% | 1015.6 hPa | 0 mm | - | 712 W/m² | - |
| 1787850080 | 31.67° C | 49% | 1015.8 hPa | 0 mm | - | 496 W/m² | - |
| 1787849779 | 32.22° C | 50% | 1015.9 hPa | 0 mm | - | 637 W/m² | - |
| 1787849474 | 31.67° C | 52% | 1015.6 hPa | 0 mm | - | 654 W/m² | - |
* Rain latest hour (hover to see other rain measurements)
** Current wind speed in m/s (hover to see current wind gust speed)